TimeCST,TemperatureF,Dew PointF,Humidity,Sea Level PressureIn,VisibilityMPH,Wind Direction,Wind SpeedMPH,Gust SpeedMPH,PrecipitationIn,Events,Conditions,WindDirDegrees,DateUTC
12:15 AM,-2.2,-4.0,92,30.38,10.0,Calm,Calm,-,N/A,,Clear,0,2014-01-03 06:15:00
12:35 AM,-2.2,-5.8,85,30.39,7.0,West,3.5,-,N/A,,Clear,270,2014-01-03 06:35:00
12:55 AM,-0.4,-4.0,85,30.39,10.0,West,3.5,-,N/A,,Clear,270,2014-01-03 06:55:00
1:15 AM,-2.2,-5.8,85,30.39,10.0,SW,3.5,-,N/A,,Clear,230,2014-01-03 07:15:00
1:35 AM,-5.8,-9.4,84,30.39,10.0,SW,4.6,-,N/A,,Clear,220,2014-01-03 07:35:00
1:55 AM,-4.0,-7.6,85,30.41,10.0,WSW,4.6,-,N/A,,Clear,250,2014-01-03 07:55:00
2:15 AM,-7.6,-11.2,84,30.41,10.0,WSW,4.6,-,N/A,,Clear,250,2014-01-03 08:15:00
2:35 AM,-7.6,-11.2,84,30.42,10.0,Calm,Calm,-,N/A,,Clear,0,2014-01-03 08:35:00
2:55 AM,-7.6,-9.4,92,30.42,10.0,Calm,Calm,-,N/A,,Clear,0,2014-01-03 08:55:00
3:15 AM,-7.6,-11.2,84,30.42,10.0,Calm,Calm,-,N/A,,Clear,0,2014-01-03 09:15:00
3:35 AM,-5.8,-9.4,84,30.42,10.0,Calm,Calm,-,N/A,,Clear,0,2014-01-03 09:35:00
3:55 AM,-7.6,-13.0,77,30.42,10.0,Calm,Calm,-,N/A,,Clear,0,2014-01-03 09:55:00
4:15 AM,-11.2,-14.8,84,30.42,10.0,Calm,Calm,-,N/A,,Clear,0,2014-01-03 10:15:00
4:35 AM,-9.4,-14.8,77,30.42,10.0,Calm,Calm,-,N/A,,Clear,0,2014-01-03 10:35:00
4:55 AM,-9.4,-13.0,84,30.42,10.0,SW,3.5,-,N/A,,Clear,230,2014-01-03 10:55:00
5:15 AM,-13.0,-16.6,84,30.43,10.0,SW,3.5,-,N/A,,Clear,220,2014-01-03 11:15:00
5:35 AM,-13.0,-18.4,77,30.43,10.0,SW,3.5,-,N/A,,Clear,230,2014-01-03 11:35:00
5:55 AM,-11.2,-14.8,84,30.44,10.0,Calm,Calm,-,N/A,,Clear,0,2014-01-03 11:55:00
6:15 AM,-13.0,-18.4,77,30.44,10.0,Calm,Calm,-,N/A,,Clear,0,2014-01-03 12:15:00
6:35 AM,-13.0,-16.6,84,30.43,10.0,Calm,Calm,-,N/A,,Clear,0,2014-01-03 12:35:00
6:55 AM,-13.0,-16.6,84,30.44,10.0,Calm,Calm,-,N/A,,Clear,0,2014-01-03 12:55:00
7:15 AM,-13.0,-16.6,84,30.44,10.0,Calm,Calm,-,N/A,,Clear,0,2014-01-03 13:15:00
7:35 AM,-13.0,-18.4,77,30.45,10.0,Calm,Calm,-,N/A,,Clear,0,2014-01-03 13:35:00
7:55 AM,-13.0,-18.4,77,30.46,10.0,Calm,Calm,-,N/A,,Clear,0,2014-01-03 13:55:00
8:15 AM,-9999,-9999,N/A,30.46,10.0,Calm,Calm,-,N/A,,Clear,0,2014-01-03 14:15:00
8:35 AM,-9999,-9999,N/A,30.46,10.0,South,3.5,-,N/A,,Clear,180,2014-01-03 14:35:00
8:55 AM,-9999,-9999,N/A,30.45,7.0,South,3.5,-,N/A,,Clear,170,2014-01-03 14:55:00
9:15 AM,-9999,-9999,N/A,30.46,3.0,Calm,Calm,-,N/A,,Clear,0,2014-01-03 15:15:00
9:35 AM,-9999,-9999,N/A,30.46,7.0,SSE,3.5,-,N/A,,Clear,160,2014-01-03 15:35:00
9:55 AM,-9999,-9999,N/A,30.45,10.0,South,3.5,-,N/A,,Clear,170,2014-01-03 15:55:00
10:15 AM,-9999,-9999,N/A,30.45,10.0,South,4.6,-,N/A,,Clear,170,2014-01-03 16:15:00
10:35 AM,-9999,-9999,N/A,30.44,10.0,South,3.5,-,N/A,,Clear,170,2014-01-03 16:35:00
10:55 AM,-9999,-9999,N/A,30.43,10.0,South,6.9,-,N/A,,Clear,170,2014-01-03 16:55:00
11:15 AM,-9999,-9999,N/A,30.42,10.0,SSW,8.1,-,N/A,,Clear,200,2014-01-03 17:15:00
11:35 AM,-9999,-9999,N/A,30.41,10.0,South,5.8,-,N/A,,Clear,180,2014-01-03 17:35:00
11:55 AM,-9999,-9999,N/A,30.39,10.0,SSE,6.9,-,N/A,,Clear,160,2014-01-03 17:55:00
12:15 PM,-9999,-9999,N/A,30.38,10.0,South,8.1,-,N/A,,Clear,170,2014-01-03 18:15:00
12:35 PM,10.4,8.6,92,30.36,10.0,South,8.1,-,N/A,,Clear,190,2014-01-03 18:35:00
12:55 PM,12.2,10.4,92,30.35,10.0,SSE,9.2,-,N/A,,Clear,150,2014-01-03 18:55:00
1:15 PM,12.2,8.6,85,30.34,10.0,South,10.4,-,N/A,,Scattered Clouds,170,2014-01-03 19:15:00
1:35 PM,14.0,8.6,79,30.33,10.0,SSE,10.4,-,N/A,,Scattered Clouds,160,2014-01-03 19:35:00
1:55 PM,14.0,8.6,79,30.31,10.0,SSE,10.4,16.1,N/A,,Clear,150,2014-01-03 19:55:00
2:15 PM,15.8,10.4,79,30.29,10.0,SSE,10.4,-,N/A,,Scattered Clouds,160,2014-01-03 20:15:00
2:35 PM,15.8,8.6,73,30.29,10.0,SSE,13.8,-,N/A,,Mostly Cloudy,160,2014-01-03 20:35:00
2:55 PM,15.8,8.6,73,30.28,10.0,SSE,13.8,-,N/A,,Scattered Clouds,160,2014-01-03 20:55:00
3:15 PM,17.6,10.4,73,30.27,10.0,SSE,11.5,-,N/A,,Mostly Cloudy,160,2014-01-03 21:15:00
3:35 PM,17.6,10.4,73,30.28,10.0,SSE,10.4,-,N/A,,Overcast,160,2014-01-03 21:35:00
3:55 PM,17.6,10.4,73,30.27,10.0,South,12.7,17.3,N/A,,Overcast,170,2014-01-03 21:55:00
4:15 PM,17.6,10.4,73,30.25,10.0,SSE,13.8,-,N/A,,Overcast,160,2014-01-03 22:15:00
4:35 PM,19.4,12.2,74,30.24,10.0,SSE,13.8,-,N/A,,Overcast,160,2014-01-03 22:35:00
4:55 PM,19.4,10.4,68,30.22,10.0,SSE,17.3,20.7,N/A,,Overcast,160,2014-01-03 22:55:00
5:15 PM,19.4,10.4,68,30.22,10.0,SSE,15.0,-,N/A,,Mostly Cloudy,160,2014-01-03 23:15:00
5:35 PM,17.6,10.4,73,30.21,10.0,SSE,15.0,-,N/A,,Scattered Clouds,160,2014-01-03 23:35:00
5:55 PM,17.6,10.4,73,30.19,10.0,SSE,15.0,-,N/A,,Clear,160,2014-01-03 23:55:00
6:15 PM,17.6,10.4,73,30.19,10.0,SSE,16.1,21.9,N/A,,Clear,160,2014-01-04 00:15:00
6:35 PM,17.6,10.4,73,30.18,10.0,SSE,15.0,21.9,N/A,,Clear,160,2014-01-04 00:35:00
6:55 PM,17.6,10.4,73,30.17,10.0,SSE,18.4,23.0,N/A,,Clear,160,2014-01-04 00:55:00
7:15 PM,17.6,10.4,73,30.16,10.0,SSE,16.1,23.0,N/A,,Clear,160,2014-01-04 01:15:00
7:35 PM,17.6,10.4,73,30.14,10.0,SSE,15.0,21.9,N/A,,Clear,160,2014-01-04 01:35:00
7:55 PM,17.6,10.4,73,30.14,10.0,SSE,18.4,23.0,N/A,,Clear,160,2014-01-04 01:55:00
8:15 PM,17.6,10.4,73,30.12,10.0,SSE,16.1,21.9,N/A,,Clear,160,2014-01-04 02:15:00
8:35 PM,17.6,12.2,79,30.11,10.0,SSE,16.1,-,N/A,,Clear,160,2014-01-04 02:35:00
8:55 PM,17.6,12.2,79,30.10,10.0,SSE,16.1,21.9,N/A,,Clear,160,2014-01-04 02:55:00
9:15 PM,17.6,12.2,79,30.09,10.0,SSE,16.1,-,N/A,,Clear,160,2014-01-04 03:15:00
9:35 PM,17.6,12.2,79,30.08,10.0,SSE,17.3,-,N/A,,Clear,160,2014-01-04 03:35:00
9:55 PM,17.6,12.2,79,30.06,10.0,SSE,16.1,-,N/A,,Clear,160,2014-01-04 03:55:00
10:15 PM,17.6,12.2,79,30.06,10.0,SSE,13.8,20.7,N/A,,Clear,160,2014-01-04 04:15:00
10:35 PM,17.6,12.2,79,30.05,10.0,SSE,15.0,-,N/A,,Clear,160,2014-01-04 04:35:00
10:55 PM,19.4,12.2,74,30.04,10.0,SSE,19.6,23.0,N/A,,Clear,160,2014-01-04 04:55:00
11:15 PM,19.4,12.2,74,30.03,10.0,South,19.6,25.3,N/A,,Clear,170,2014-01-04 05:15:00
11:35 PM,19.4,12.2,74,30.02,10.0,South,19.6,23.0,N/A,,Clear,170,2014-01-04 05:35:00
11:55 PM,19.4,12.2,74,30.02,10.0,South,17.3,26.5,N/A,,Clear,170,2014-01-04 05:55:00